Cross City, FL

3:20 PM EDT on May 22, 2018 (GMT -0400)
Cross City

Weather History for KCTY - May, 2013

Change the Weather History Date:

Sunday, May 12, 2013

  Actual Average Record
Temperature  
Mean Temperature 75 °F 74 °F  
Max Temperature 86 °F 87 °F 95 °F (2018)
Min Temperature 63 °F 60 °F 50 °F (2006)
Degree Days  
Heating Degree Days 0 0  
Month to date heating degree days 7 0  
Since 1 July heating degree days 1131 1303  
Cooling Degree Days 10 9  
Month to date cooling degree days 58 85  
Year to date cooling degree days 343 267  
Growing Degree Days 24 (Base 50)    
Moisture  
Dew Point 65 °F    
Average Humidity 74    
Maximum Humidity 100    
Minimum Humidity 45    
Precipitation  
Precipitation 0.00 in 0.07 in 0.34 in (2003)
Month to date precipitation 2.30 0.86  
Year to date precipitation 9.84 15.34  
Sea Level Pressure  
Sea Level Pressure 30.01 in    
Wind  
Wind Speed 6 mph (WSW)    
Max Wind Speed 16 mph    
Max Gust Speed 21 mph    
T = Trace of Precipitation, MM = Missing Value Source: NWS Daily Summary

Daily Weather History Graph

Daily Weather History Graph

Search for Another Location

Airport or City:

Astronomy

May. 12, 2013 Rise Set
Actual Time 6:41 AM EDT 8:16 PM EDT
Civil Twilight 6:15 AM EDT 8:42 PM EDT
Nautical Twilight 5:44 AM EDT 9:13 PM EDT
Astronomical Twilight 5:12 AM EDT 9:46 PM EDT
Moon 8:38 AM EDT (5/12) 10:40 PM EDT (5/12)
Length of Visible Light 14h 26m
Length of Day
13h 35m
Waxing Crescent, 6% of the Moon is Illuminated
May 12
Waxing Crescent
May 18
First Quarter
May 25
Full
May 31
Last Quarter
Jun 8
New

Hourly Weather History & Observations

Time (EDT) Temp. Heat Index Dew Point Humidity Pressure Visibility Wind Dir Wind Speed Gust Speed Precip Events Conditions
12:53 AM 68.0 °F - 66.0 °F 93% 30.01 in - Calm Calm - N/A   Unknown
1:53 AM 66.9 °F - 64.9 °F 93% 29.99 in - South 3.5 mph - N/A   Unknown
2:53 AM 66.9 °F - 66.0 °F 97% 29.97 in - SSE 3.5 mph - N/A   Unknown
3:53 AM 66.9 °F - 64.9 °F 93% 29.97 in - Calm Calm - N/A   Unknown
4:53 AM 64.9 °F - 64.0 °F 97% 29.98 in - Calm Calm - N/A   Unknown
5:53 AM 64.0 °F - 63.0 °F 96% 29.99 in - SSW 3.5 mph - N/A   Unknown
6:53 AM 63.0 °F - 62.1 °F 97% 30.00 in - Calm Calm - N/A   Unknown
7:53 AM 68.0 °F - 66.0 °F 93% 30.02 in - SW 3.5 mph - N/A   Unknown
8:53 AM 72.0 °F - 69.1 °F 91% 30.03 in - West 3.5 mph - N/A   Unknown
9:53 AM 75.0 °F - 68.0 °F 79% 30.04 in - West 6.9 mph - N/A   Unknown
10:53 AM 78.1 °F - 66.0 °F 66% 30.03 in - Variable 4.6 mph - N/A   Unknown
11:53 AM 82.0 °F 84.5 °F 66.9 °F 60% 30.03 in - West 8.1 mph - N/A   Unknown
12:53 PM 82.9 °F 85.0 °F 66.0 °F 56% 30.01 in - WNW 11.5 mph - N/A   Unknown
1:53 PM 82.9 °F 84.6 °F 64.9 °F 54% 30.01 in - WNW 11.5 mph 17.3 mph N/A   Unknown
2:53 PM 84.9 °F 86.1 °F 64.0 °F 49% 30.00 in - West 11.5 mph 17.3 mph N/A   Unknown
3:53 PM 86.0 °F 86.8 °F 63.0 °F 46% 29.99 in - West 11.5 mph - N/A   Unknown
4:53 PM 82.9 °F 83.7 °F 62.1 °F 49% 29.98 in - West 9.2 mph - N/A   Unknown
5:53 PM 82.0 °F 82.7 °F 61.0 °F 49% 29.99 in - West 12.7 mph - N/A   Unknown
6:53 PM 78.1 °F - 62.1 °F 58% 29.99 in - West 9.2 mph - N/A   Unknown
7:53 PM 73.9 °F - 64.0 °F 71% 30.00 in - WSW 6.9 mph - N/A   Unknown
8:53 PM 73.0 °F - 66.0 °F 79% 30.02 in - West 3.5 mph - N/A   Unknown
9:53 PM - - - N/A% 30.04 in - West 3.5 mph - N/A   Unknown
10:53 PM - - - N/A% 30.06 in - SW 3.5 mph - N/A   Unknown
11:53 PM - - - N/A% 30.04 in - Calm Calm - N/A   Unknown